Torna al catalogo

PELICAN-8 300F

AttivoScienzaSSO
NORAD 69018·PAYLOAD·🇺🇸 United States

Lanciato May 3, 2026 da Vandenberg Space Force Base

Loading…

Prossimi Passaggi (prossime 24 ore)

TLE

AggiornatoSource: CelesTrak SupGP

Epoca: Sep 14, 2026, 18:45 UTC

1 69018C 26100R   26257.78143519  .00023548  00000+0  88939-3 0  2571
2 69018  97.3177 154.1236 0003810 113.9255 200.6598 15.27042433    12

Traccia PELICAN-8 300F in tempo reale con AllMySat

Download on the App Store